Location: Brahman Valley
(40.6513°N, 111.8855°W)
Time: 07:31:21
(UTC+00:00)

Envisat - Visible Passes

Search period start: 17 April 2021 00:00
Search period end: 27 April 2021 00:00
Orbit: 764 x 766 km, 98.1° (Epoch: 16 April)

Date Brightness Start Highest point End Pass type
(mag) Time Alt. Az. Time Alt. Az. Time Alt. Az.
17 Apr 5.4 12:10:35 10° NE 12:14:50 26° E 12:19:04 10° SSE visible
18 Apr 6.2 11:36:02 10° ENE 11:37:38 11° E 11:39:13 10° ESE visible
20 Apr 5.7 11:59:31 10° NE 12:03:18 21° E 12:07:04 10° SE visible
23 Apr 5.8 11:48:36 10° NE 11:51:45 16° E 11:54:51 10° SE visible
26 Apr 6.0 11:38:03 10° ENE 11:40:10 12° E 11:42:17 10° ESE visible
